Location: Newark
(46.2358°N, 112.1211°W)
Time: 08:31:31
(UTC+00:00)

ISS - Visible Passes

Search period start: 15 May 2021 00:00
Search period end: 25 May 2021 00:00
Orbit: 417 x 422 km, 51.6° (Epoch: 15 May)

Date Brightness Start Highest point End Pass type
(mag) Time Alt. Az. Time Alt. Az. Time Alt. Az.
15 May -3.5 04:34:22 10° SW 04:37:34 42° SE 04:40:47 10° ENE visible
15 May -2.7 06:11:08 10° W 06:14:24 45° NNW 06:17:40 10° ENE visible
15 May -1.9 07:48:38 10° WNW 07:51:42 31° N 07:54:46 10° ENE visible
15 May -3.3 09:25:32 10° WNW 09:28:54 63° NNE 09:32:16 10° ESE visible
15 May -2.7 11:02:41 10° W 11:05:30 25° SW 11:08:20 10° SSE visible
16 May -2.8 03:47:20 10° SSW 03:50:14 27° SE 03:53:09 10° E visible
16 May -3.2 05:23:33 10° WSW 05:26:53 59° NNW 05:30:13 10° ENE visible
16 May -1.9 07:01:02 10° WNW 07:04:06 31° N 07:07:10 10° ENE visible
16 May -2.8 08:38:06 10° WNW 08:41:23 47° NNE 08:44:41 10° E visible
16 May -3.3 10:15:01 10° WNW 10:18:11 38° SW 10:21:20 10° SSE visible
17 May -3.7 04:36:01 10° WSW 04:39:23 82° NNW 04:42:46 10° ENE visible
17 May -2.0 06:13:25 10° WNW 06:16:30 33° N 06:19:37 10° ENE visible
17 May -2.3 07:50:38 10° WNW 07:53:51 38° NNE 07:54:23 36° NE visible
17 May -1.3 09:33:42 13° SE 09:33:42 13° SE 09:34:07 10° SE visible
18 May -3.8 03:48:36 10° SW 03:51:57 67° SSE 03:55:18 10° ENE visible
18 May -2.2 05:25:45 10° W 05:28:56 37° NNW 05:32:06 10° ENE visible
18 May -2.0 07:03:09 10° WNW 07:06:16 34° N 07:07:21 26° NE visible
18 May -1.0 08:39:58 10° WNW 08:40:15 12° WNW 08:40:15 12° WNW visible
19 May -2.6 04:38:07 10° W 04:41:22 45° NNW 04:44:38 10° ENE visible
19 May -1.9 06:15:36 10° WNW 06:18:40 31° N 06:21:02 14° ENE visible
19 May -1.7 07:52:31 10° WNW 07:53:57 23° NW 07:53:57 23° NW visible
20 May -3.1 03:50:30 10° WSW 03:53:49 58° NNW 03:57:10 10° ENE visible
20 May -1.9 05:28:00 10° WNW 05:31:04 31° N 05:34:08 10° ENE visible
20 May -2.6 07:05:04 10° WNW 07:07:49 43° NNW 07:07:49 43° NNW visible
21 May -2.0 04:40:22 10° WNW 04:43:27 33° N 04:46:33 10° ENE visible
21 May -2.4 06:17:35 10° WNW 06:20:47 38° NNE 06:21:44 31° NE visible
21 May -1.0 07:54:24 10° WNW 07:54:40 12° WNW 07:54:40 12° WNW visible
22 May -2.2 03:52:41 10° W 03:55:51 37° NNW 03:59:01 10° ENE visible
22 May -2.1 05:30:04 10° WNW 05:33:11 34° N 05:35:41 14° ENE visible
22 May -2.0 07:06:53 10° WNW 07:08:38 28° WNW 07:08:38 28° WNW visible
23 May -2.0 04:42:30 10° WNW 04:45:34 31° N 04:48:38 10° ENE visible
23 May -3.4 06:19:25 10° WNW 06:22:36 63° N 06:22:36 63° N visible
24 May -1.9 03:54:54 10° WNW 03:57:57 31° N 04:01:00 10° ENE visible
24 May -2.9 05:31:57 10° WNW 05:35:14 48° NNE 05:36:37 28° ENE visible
24 May -1.2 07:08:51 10° WNW 07:09:33 15° W 07:09:33 15° W visible
